Zurück zum Katalog

SL-8 R/B

AktivLEO
NORAD 16864·ROCKET BODY·🇷🇺 Russia

Gestartet Jul 16, 1986 von Plesetsk Cosmodrome

Loading…

Nächste Überflüge (nächste 24 Stunden)

TLE

AktuellSource: Space-Track

Epoche: Sep 14, 2026, 14:26 UTC

1 16864U 86052B   26257.60171350  .00000168  00000-0  58662-4 0  9997
2 16864  74.0298 322.0407 0033001 311.5332  48.2994 14.42362612109018

Verfolge SL-8 R/B in Echtzeit mit AllMySat

Download on the App Store